This is the latest recevied weather packets stored in our database for station/object K0SNA. If no packets are shown the sender has not sent any weather packets the latest 10 day(s).
| Time | Temp. | Humidity | Pressure | Rain* | Wind** | Luminosity | Snow |
|---|---|---|---|---|---|---|---|
| 1777834227 | 20° C | 30% | 1006.7 hPa | 0 mm | - | 689 W/m² | - |
| 1777833923 | 20.56° C | 31% | 1006.7 hPa | 0 mm | - | 688 W/m² | - |
| 1777833620 | 20° C | 31% | 1006.6 hPa | 0 mm | - | 693 W/m² | - |
| 1777833317 | 20.56° C | 33% | 1006.6 hPa | 0 mm | - | 693 W/m² | - |
| 1777833014 | 21.11° C | 33% | 1007 hPa | 0 mm | - | 694 W/m² | - |
| 1777832712 | 21.11° C | 35% | 1006.9 hPa | 0 mm | - | 694 W/m² | - |
| 1777832410 | 20.56° C | 31% | 1006.8 hPa | 0 mm | - | 699 W/m² | - |
| 1777832107 | 20° C | 34% | 1007 hPa | 0 mm | - | 699 W/m² | - |
| 1777831803 | 20° C | 34% | 1007 hPa | 0 mm | - | 698 W/m² | - |
| 1777831500 | 19.44° C | 36% | 1006.9 hPa | 0 mm | - | 697 W/m² | - |
| 1777831197 | 20° C | 35% | 1006.9 hPa | 0 mm | - | 698 W/m² | - |
| 1777830895 | 20.56° C | 34% | 1006.9 hPa | 0 mm | - | 697 W/m² | - |
| 1777830591 | 20° C | 34% | 1007.1 hPa | 0 mm | - | 695 W/m² | - |
| 1777830289 | 19.44° C | 34% | 1007.2 hPa | 0 mm | - | 694 W/m² | - |
| 1777829984 | 19.44° C | 35% | 1007.1 hPa | 0 mm | - | 689 W/m² | - |
| 1777829680 | 20° C | 37% | 1007.2 hPa | 0 mm | - | 687 W/m² | - |
| 1777829377 | 19.44° C | 37% | 1007.1 hPa | 0 mm | - | 687 W/m² | - |
| 1777829074 | 19.44° C | 37% | 1007.2 hPa | 0 mm | - | 685 W/m² | - |
| 1777828771 | 20° C | 38% | 1007.1 hPa | 0 mm | - | 680 W/m² | - |
| 1777828468 | 19.44° C | 39% | 1007.2 hPa | 0 mm | - | 679 W/m² | - |
| 1777828165 | 20° C | 39% | 1007.2 hPa | 0 mm | - | 675 W/m² | - |
| 1777827861 | 19.44° C | 39% | 1007.2 hPa | 0 mm | - | 668 W/m² | - |
| 1777827559 | 19.44° C | 39% | 1007.3 hPa | 0 mm | - | 666 W/m² | - |
| 1777827256 | 19.44° C | 37% | 1007.3 hPa | 0 mm | - | 661 W/m² | - |
| 1777826952 | 19.44° C | 39% | 1007.2 hPa | 0 mm | - | 654 W/m² | - |
* Rain latest hour (hover to see other rain measurements)
** Current wind speed in m/s (hover to see current wind gust speed)